Location: 5810 Zion Rd, Cleves, OH 45002, USA
(39.1922°N, 84.7113°W)
Time: 05:37:04
(UTC-05:00)

Courier 1B Rocket - Pass Details

Date: 06 December 2019
Orbit: 920 x 1202 km, 28.2° (Epoch: 21 January)

Event Time Altitude Azimuth Distance (km) Brightness Sun altitude
Rises 06:55:23 0° 207° (SSW) 3,739 8.0 -9.3°
Reaches altitude 10° 07:00:01 10° 179° (S) 2,724 7.7 -8.5°
Maximum altitude 07:02:30 12° 156° (SSE) 2,526 7.9 -8.0°
Drops below altitude 10° 07:04:56 10° 133° (SE) 2,667 8.6 -7.6°
Sets 07:09:20 0° 105° (ESE) 3,574 10.3 -6.8°
